sat.trackr.live / text

‹ back to catalog

R2

NORAD 46913 · 2020-081J

PAYLOAD ACTIVE UNKNOWN

§ Identity

Operator
Country
LTU
Launch date
2020-11-07
Launch site
SRILR
Launch vehicle
Mass (kg)
RCS (m²)

External: N2YO · Heavens-Above · Gunter

§ Orbital elements

Epoch: 2026-09-20T04:25:51.264768Z

Period
94.32 min
Inclination
36.8950°
Eccentricity
0.0007293
Mean motion
15.26670147 rev/d
Perigee alt
480.8 km
Apogee alt
490.8 km
Semi-major
6,863.9 km
B*
2.2257e-4
RAAN
195.4778°
Arg perigee
347.9896°
Mean anomaly
12.0678°
Rev number
32,650

§ Raw data

R21 46913U 20081J   26263.18462112  .00005886  00000+0  22257-3 0  99952 46913  36.8950 195.4778 0007293 347.9896  12.0678 15.26670147326503

JSON: /api/v1/satellites/46913 · /tle

For live sub-satellite position, see the globe view (requires WebGL).

§ Visibility from observer

Set your observer location to see the next 7 days of passes ≥ 10°. The values pass through the URL so the page stays shareable.

No JS? Fill the form by hand. The geolocation button needs JavaScript.

§ Radio — SatNOGS DB

ModeDescriptionDownlinkUplink
FM UHF Unknown 401.050 MHz

1 transmitter · refreshed weekly from db.satnogs.org